Wind_Speed
26 24 22 21 19 15 10 5 4 17 5 4 4 4 5 9 14 21 9 10 9 5 8 6 4 5 6 16 7 4 4 3 3 6 5 4 5 8 7 4 1 3 4 4
25 23 20 19 19 22 14 5 7 28 13 4 4 7 9 16 9 8 6 9 8 6 6 5 5 5 17 21 10 5 5 4 5 13 6 8 6 8 7 4 3 3 5 4
24 21 17 17 16 17 15 5 4 10 23 21 6 4 8 4 17 19 15 8 11 8 7 5 5 8 12 19 14 15 7 3 4 4 4 4 7 14 9 5 3 3 2 4
22 20 16 15 15 15 8 7 3 4 3 8 11 11 5 11 6 9 21 7 9 5 6 7 5 7 8 9 19 10 4 2 4 2 4 5 8 14 11 5 4 3 6 6
20 19 16 17 13 11 17 5 5 8 14 11 13 6 5 8 5 6 3 4 5 6 4 1 4 5 4 2 10 7 5 3 5 7 8 9 8 10 12 9 5 5 7 5
17 18 16 17 18 9 9 9 9 3 9 6 5 3 3 5 4 8 10 5 2 5 4 12 14 15 11 9 1 2 0 2 3 3 7 8 7 4 5 8 3 0 4 6
14 16 14 17 19 16 11 11 8 4 2 3 1 5 8 3 4 2 7 9 4 7 14 19 12 9 12 11 13 5 4 5 3 3 4 3 6 7 9 11 3 6 2 7
12 12 13 14 14 14 12 12 8 6 2 4 6 9 5 14 4 2 6 5 5 10 10 4 5 5 5 5 5 9 6 4 2 3 4 7 13 7 7 7 6 12 10 14
8 9 9 11 13 12 10 11 10 4 2 3 2 4 6 2 2 5 5 6 5 11 6 3 4 3 2 5 10 9 7 5 4 2 3 5 1 14 23 17 4 17 17 19
8 6 6 7 9 9 9 12 11 3 2 1 3 4 2 2 2 2 1 1 5 7 3 3 3 1 1 1 4 5 4 4 3 3 4 4 8 21 21 4 4 24 20 23
10 7 4 4 5 7 5 6 11 9 3 1 3 3 5 5 4 3 1 4 5 3 4 2 1 2 1 1 1 0 1 2 1 3 3 5 17 7 2 13 22 20 27 24
9 9 7 5 4 5 6 5 5 7 4 7 8 7 6 8 7 7 3 5 4 4 3 2 3 2 2 3 1 2 3 4 3 6 5 10 12 13 20 15 23 24 27 28
9 9 8 7 5 6 5 4 7 6 6 9 6 8 10 14 6 6 5 6 7 7 7 6 2 2 3 3 3 3 3 5 3 1 5 6 20 11 17 22 26 26 26 30
8 9 9 8 6 6 7 9 3 4 6 4 4 5 10 12 12 14 7 9 11 11 11 5 3 3 9 3 4 3 4 3 5 6 13 12 9 15 19 22 26 27 29 25
8 8 9 8 7 7 7 7 6 3 5 4 13 18 15 16 14 21 14 11 13 13 6 3 3 6 5 4 3 5 11 6 5 5 9 7 16 16 19 20 27 22 24 23
8 9 10 9 8 8 5 3 4 1 1 5 4 7 9 13 20 21 21 15 15 14 7 5 5 6 10 4 3 7 20 16 17 8 8 13 18 15 11 17 23 27 20 19
9 11 12 12 10 8 4 2 2 5 3 3 6 8 4 15 19 22 23 18 17 16 12 7 6 6 12 3 4 8 16 13 13 15 18 20 13 14 15 17 19 29 22 20
11 13 14 12 10 8 4 1 8 8 3 4 2 5 5 9 2 4 9 7 14 11 13 6 5 4 5 3 8 11 9 10 13 12 14 16 17 19 19 16 18 24 29 25
13 14 12 8 2 2 3 4 4 12 6 4 4 2 3 2 0 8 7 10 4 5 6 8 9 2 4 7 14 14 10 8 8 6 10 12 14 14 16 15 16 19 25 25
10 9 3 3 4 6 7 1 3 4 5 5 5 4 3 4 4 3 3 4 3 2 4 8 2 3 9 5 7 7 7 10 9 9 12 13 14 15 16 14 12 14 17 27
4 2 1 4 12 6 3 3 4 4 3 5 6 8 4 6 3 3 1 2 2 4 4 2 3 3 4 3 5 8 10 11 13 14 12 13 13 15 16 12 13 12 18 17
3 7 14 8 3 4 3 2 2 4 3 4 4 10 9 3 3 3 3 2 2 1 6 2 1 4 10 9 10 11 12 12 14 16 13 10 12 13 12 12 11 11 13 18
9 2 2 4 3 1 3 2 4 3 3 8 9 3 5 5 1 2 1 2 1 4 1 2 4 9 14 14 14 12 9 9 8 11 10 9 10 12 10 9 9 11 11 17
3 3 4 4 4 4 3 5 4 12 15 19 15 4 2 3 3 1 1 3 2 1 3 3 3 11 12 13 12 15 11 6 8 9 10 11 10 11 12 11 7 7 7 14
4 4 4 6 8 6 8 15 16 20 19 17 4 4 4 1 3 0 2 1 2 3 3 3 5 6 7 8 6 7 7 9 9 7 8 9 9 10 8 8 4 4 5 9
4 6 4 9 5 2 5 9 18 13 11 10 4 3 3 0 3 1 1 1 3 3 4 5 5 12 11 9 9 6 8 9 7 4 6 8 4 3 7 3 1 4 3 7
5 8 14 23 10 6 17 16 11 6 5 1 2 2 2 3 1 1 2 3 4 13 6 8 6 8 9 13 14 5 4 8 6 5 5 4 3 1 4 1 4 2 2 4
Wind_Direction
4 2 4 4 12 26 21 49 36 11 345 42 80 47 3 51 15 27 20 44 64 53 13 33 81 53 35 15 10 32 324 112 317 254 303 310 107 42 26 99 227 54 114 246
7 4 11 11 7 18 19 32 10 42 83 65 20 40 51 54 26 14 31 34 37 29 38 54 44 60 24 38 37 28 325 13 355 338 14 22 23 18 358 275 9 158 124 268
8 11 18 20 11 17 31 45 32 20 51 60 98 105 50 54 39 41 57 50 49 34 33 13 52 22 20 13 30 23 35 63 134 178 189 266 324 333 360 68 52 319 205 360
10 16 23 19 30 31 57 45 29 21 330 20 60 61 56 50 18 24 28 39 40 23 21 13 35 12 3 5 27 21 67 27 6 251 294 326 316 316 329 344 324 298 300 333
13 21 23 17 24 54 59 58 28 38 52 61 63 35 7 65 23 37 16 69 9 46 80 84 315 23 41 293 355 7 10 331 18 345 360 2 328 316 311 299 302 294 323 301
18 26 26 28 35 64 74 66 50 21 37 30 62 1 44 67 59 12 98 64 45 38 330 327 310 302 284 257 259 299 358 103 53 305 354 354 316 278 303 309 313 259 318 264
22 30 35 37 34 54 81 46 45 42 341 71 97 41 40 16 139 136 62 59 51 327 326 314 307 284 272 275 287 229 172 126 116 207 55 268 240 309 297 286 23 25 323 353
24 34 39 42 44 58 73 52 45 37 37 89 64 71 28 54 98 41 64 26 352 336 349 28 19 5 29 20 52 37 25 123 118 169 199 291 304 22 338 332 315 27 4 342
19 36 35 47 53 54 64 52 41 50 86 309 328 100 54 108 31 9 53 29 13 15 43 39 58 48 348 344 336 13 17 67 126 133 194 241 13 330 319 305 237 9 355 329
9 21 20 36 44 43 53 55 48 42 34 76 53 105 143 112 111 174 254 69 32 45 44 71 64 102 124 45 353 349 350 15 33 249 250 270 352 332 329 218 306 332 335 319
5 1 337 359 27 28 36 39 38 19 299 197 154 177 194 184 197 151 199 82 22 55 73 89 145 163 186 154 221 308 352 70 9 329 284 274 360 345 354 318 323 315 313 310
358 357 336 300 318 337 339 340 354 333 280 242 251 232 245 275 222 161 131 149 165 148 106 147 142 188 202 188 159 162 215 178 197 200 239 289 329 314 309 310 310 309 306 305
347 351 340 324 306 314 326 326 317 326 321 302 275 253 243 238 199 196 161 185 175 169 153 142 135 181 134 179 220 213 199 159 217 338 254 295 318 325 321 323 313 307 302 305
341 346 337 329 329 325 332 331 260 10 335 318 298 301 247 231 215 213 211 191 174 169 171 143 157 181 189 205 183 208 204 173 229 243 275 294 248 316 323 327 326 315 313 304
336 338 329 321 320 321 337 7 158 104 8 298 288 308 241 217 231 224 214 220 192 168 183 164 201 177 142 171 172 229 184 196 194 225 224 242 269 305 323 322 334 324 315 305
329 335 323 314 311 311 338 113 145 157 281 297 311 308 268 219 220 218 230 233 228 210 179 207 238 201 163 158 207 231 208 222 232 239 268 285 299 310 308 321 341 341 324 331
325 326 323 314 306 303 279 185 211 197 266 285 292 294 279 220 222 218 228 232 233 221 225 216 210 202 188 170 196 209 212 233 244 259 269 280 296 303 315 313 327 355 346 329
335 327 321 314 303 302 312 14 236 240 270 221 257 268 300 224 216 253 262 243 248 234 219 180 181 152 199 266 219 196 209 227 247 264 263 281 305 299 304 310 319 349 355 350
329 332 327 320 7 22 337 291 224 187 210 222 239 205 268 158 282 242 229 219 229 219 223 204 156 147 212 230 184 196 202 228 258 264 277 283 289 307 315 317 321 339 353 350
329 333 356 358 355 327 312 244 201 190 198 248 269 252 265 258 202 254 269 27 236 250 240 155 94 229 257 219 199 223 242 227 241 272 286 291 299 302 314 326 331 344 347 9
326 318 341 312 313 289 224 217 200 182 244 227 249 254 241 253 159 216 189 233 302 1 333 347 17 328 295 250 256 248 255 252 234 233 325 281 296 288 303 312 325 339 351 341
269 288 287 280 233 225 229 231 205 197 240 182 217 278 249 214 202 140 193 221 75 244 342 68 335 242 298 275 250 250 248 252 249 242 292 286 280 293 290 307 312 327 348 356
301 271 247 213 218 321 223 222 294 266 221 216 237 269 225 145 138 105 101 52 262 125 163 218 229 214 238 241 253 244 233 232 243 263 273 263 286 291 296 303 322 325 347 352
259 230 291 179 241 234 123 229 220 262 252 256 268 263 82 96 71 149 118 219 145 279 10 253 252 228 239 238 235 246 226 249 247 273 261 268 280 300 299 309 292 322 342 10
251 235 235 226 218 182 248 292 257 264 274 268 192 197 131 44 109 355 26 313 312 179 231 245 232 223 226 232 238 251 227 234 234 276 259 261 271 279 320 299 302 270 20 32
238 238 273 284 155 328 282 280 281 287 299 234 229 107 71 144 135 34 317 57 250 262 245 272 229 243 231 240 245 272 249 226 224 235 256 257 262 289 321 297 273 230 349 52
234 237 248 246 126 218 285 275 283 327 328 322 125 76 147 130 85 233 167 206 233 292 307 237 257 244 238 268 275 236 232 233 243 276 203 98 114 137 291 344 182 221 338 58
Height
1520 1515 1510 1505 1501 1497 1496 1494 1495 1491 1490 1491 1493 1501 1496 1498 1499 1495 1495 1496 1500 1505 1504 1506 1506 1512 1507 1501 1497 1505 1503 1509 1514 1499 1493 1490 1495 1513 1515 1516 1512 1520 1522 1520
1522 1517 1512 1508 1504 1500 1497 1497 1498 1496 1492 1506 1508 1502 1503 1506 1505 1505 1505 1507 1507 1507 1513 1513 1510 1509 1511 1506 1505 1511 1508 1521 1527 1505 1502 1502 1510 1513 1518 1516 1517 1519 1529 1524
1524 1519 1515 1512 1508 1504 1501 1501 1505 1503 1501 1503 1504 1508 1514 1512 1511 1512 1511 1514 1510 1512 1518 1516 1518 1517 1515 1512 1511 1511 1508 1523 1528 1538 1530 1523 1522 1515 1517 1524 1534 1532 1522 1515
1526 1522 1518 1515 1511 1507 1505 1506 1511 1511 1513 1511 1510 1510 1517 1517 1519 1516 1515 1519 1520 1521 1524 1523 1525 1523 1521 1516 1515 1515 1519 1529 1525 1525 1521 1519 1519 1516 1516 1524 1525 1527 1520 1518
1529 1524 1521 1517 1513 1510 1510 1512 1513 1513 1514 1514 1514 1516 1522 1520 1520 1520 1522 1524 1523 1522 1527 1527 1528 1527 1527 1525 1522 1523 1524 1532 1531 1530 1521 1521 1520 1516 1513 1514 1516 1516 1516 1515
1531 1527 1524 1520 1516 1514 1513 1515 1516 1517 1519 1519 1521 1523 1522 1523 1522 1523 1523 1524 1524 1524 1524 1522 1521 1522 1524 1525 1527 1529 1529 1533 1540 1540 1530 1525 1526 1515 1513 1511 1512 1513 1520 1514
1533 1530 1527 1524 1521 1518 1518 1519 1519 1519 1526 1523 1524 1524 1523 1523 1523 1525 1525 1524 1524 1524 1521 1518 1516 1516 1519 1522 1523 1525 1529 1535 1542 1546 1537 1547 1517 1511 1510 1509 1510 1510 1508 1508
1535 1532 1531 1528 1526 1524 1523 1522 1522 1523 1527 1525 1525 1525 1525 1525 1525 1525 1525 1525 1525 1522 1520 1523 1525 1528 1526 1526 1526 1526 1525 1532 1543 1543 1549 1528 1513 1520 1522 1518 1514 1516 1513 1508
1536 1534 1533 1531 1529 1528 1527 1526 1525 1525 1526 1527 1525 1525 1526 1528 1527 1526 1526 1525 1525 1523 1525 1529 1538 1540 1541 1538 1531 1527 1526 1527 1535 1542 1543 1541 1529 1523 1516 1511 1514 1517 1516 1511
1537 1535 1534 1533 1532 1530 1529 1528 1527 1526 1525 1524 1524 1525 1526 1525 1526 1528 1526 1525 1525 1525 1533 1534 1541 1539 1541 1551 1544 1543 1539 1539 1542 1535 1533 1526 1527 1520 1511 1517 1516 1513 1515 1510
1537 1536 1535 1534 1532 1531 1530 1529 1527 1527 1525 1523 1522 1522 1522 1522 1523 1526 1524 1527 1526 1528 1537 1538 1542 1542 1543 1546 1545 1542 1542 1546 1541 1545 1534 1528 1526 1522 1525 1517 1514 1514 1510 1507
1536 1535 1534 1533 1532 1531 1529 1529 1527 1525 1524 1522 1521 1520 1520 1520 1519 1520 1521 1522 1523 1525 1532 1536 1541 1541 1541 1543 1542 1540 1544 1542 1544 1541 1535 1524 1525 1525 1521 1517 1513 1509 1503 1499
1536 1534 1533 1532 1531 1530 1529 1529 1527 1526 1525 1520 1518 1518 1519 1519 1520 1520 1520 1521 1521 1522 1523 1529 1534 1539 1539 1541 1537 1537 1536 1537 1538 1538 1525 1524 1523 1519 1517 1513 1507 1502 1499 1492
1534 1533 1532 1531 1530 1530 1529 1528 1529 1530 1529 1528 1521 1518 1517 1518 1518 1518 1518 1518 1519 1520 1521 1524 1528 1531 1530 1536 1533 1533 1532 1534 1530 1527 1522 1520 1518 1516 1511 1507 1502 1495 1489 1486
1533 1531 1531 1531 1529 1529 1529 1528 1528 1530 1534 1530 1518 1514 1513 1515 1516 1517 1518 1516 1516 1520 1523 1521 1522 1520 1524 1525 1527 1525 1523 1522 1524 1520 1513 1515 1512 1509 1507 1503 1496 1490 1485 1478
1532 1530 1530 1529 1528 1528 1528 1529 1531 1530 1530 1528 1522 1512 1507 1508 1510 1512 1514 1514 1516 1518 1518 1519 1517 1512 1514 1522 1521 1510 1511 1511 1511 1509 1508 1508 1506 1505 1502 1498 1492 1485 1480 1475
1530 1529 1528 1527 1526 1527 1528 1528 1527 1527 1528 1527 1522 1513 1507 1506 1508 1509 1510 1511 1511 1510 1512 1510 1510 1511 1512 1513 1518 1503 1505 1505 1506 1505 1506 1504 1501 1499 1496 1493 1489 1483 1477 1471
1528 1526 1526 1525 1523 1523 1524 1524 1524 1524 1524 1523 1521 1511 1505 1503 1506 1509 1507 1504 1504 1504 1503 1504 1505 1509 1509 1512 1499 1500 1501 1502 1503 1503 1503 1500 1498 1496 1493 1490 1487 1481 1474 1468
1526 1524 1523 1522 1522 1522 1524 1522 1520 1521 1525 1519 1513 1510 1508 1502 1504 1506 1503 1501 1501 1498 1498 1497 1500 1507 1510 1495 1495 1496 1497 1498 1499 1500 1499 1498 1496 1493 1490 1488 1484 1481 1474 1467
1524 1523 1522 1522 1523 1522 1523 1522 1521 1520 1519 1518 1513 1508 1506 1503 1502 1502 1502 1500 1499 1495 1491 1491 1495 1498 1492 1492 1493 1494 1495 1497 1498 1496 1495 1494 1493 1490 1487 1486 1483 1479 1474 1469
1523 1522 1522 1523 1522 1521 1520 1520 1520 1519 1518 1513 1508 1504 1503 1500 1501 1501 1501 1500 1498 1498 1496 1493 1498 1498 1492 1491 1491 1493 1492 1493 1493 1493 1492 1490 1490 1487 1485 1483 1481 1478 1474 1468
1522 1522 1521 1520 1519 1518 1519 1514 1511 1512 1511 1509 1505 1500 1499 1498 1497 1498 1500 1500 1500 1504 1501 1503 1503 1497 1492 1491 1489 1490 1490 1490 1490 1489 1490 1488 1485 1485 1483 1480 1478 1476 1473 1468
1520 1520 1519 1518 1517 1519 1514 1518 1514 1511 1504 1500 1497 1496 1494 1495 1497 1498 1499 1499 1501 1503 1504 1504 1498 1491 1488 1487 1488 1487 1488 1487 1486 1486 1485 1484 1482 1482 1480 1478 1477 1476 1473 1469
1519 1517 1519 1514 1512 1506 1507 1506 1502 1499 1494 1492 1493 1494 1493 1493 1495 1497 1497 1498 1498 1498 1504 1500 1490 1487 1486 1486 1486 1485 1484 1484 1483 1482 1481 1481 1481 1480 1478 1477 1476 1475 1472 1469
1516 1514 1515 1503 1497 1497 1496 1496 1496 1493 1490 1488 1489 1490 1490 1492 1494 1496 1497 1496 1496 1500 1500 1492 1487 1485 1484 1483 1484 1483 1482 1481 1479 1479 1478 1479 1478 1477 1476 1475 1475 1473 1472 1470
1512 1508 1501 1496 1497 1498 1496 1493 1491 1489 1488 1487 1487 1486 1491 1494 1495 1495 1495 1498 1503 1495 1489 1486 1485 1483 1482 1482 1481 1480 1480 1478 1477 1476 1476 1476 1475 1475 1474 1473 1473 1472 1471 1470
1505 1498 1494 1493 1493 1491 1489 1489 1489 1489 1488 1487 1485 1488 1488 1490 1495 1495 1494 1496 1492 1487 1485 1483 1482 1480 1478 1480 1479 1477 1475 1475 1474 1474 1473 1472 1474 1473 1473 1472 1471 1472 1471 1470